• In United Kingdom
  • List of Countries
  • For 7 days
  • Water Temperature
  • Satellite Maps
  • Weather Map
  • Weather Widgets
  • user-avatar
    Login

    Hourly Weather Konstantyna

    Today, 25 June, Monday

    Time Temperature Precipitation Wind Pressure Humidity
    00:00 +22°C° 0 mm 1 mps 709 mmHg 74%
    01:00 +21°C° 0 mm 1 mps 709 mmHg 75%
    02:00 +21°C° 0 mm 1 mps 709 mmHg 76%
    03:00 +20°C° 0 mm 1 mps 709 mmHg 77%
    04:00 +21°C° 0 mm 1 mps 709 mmHg 73%
    05:00 +21°C° 0 mm 1 mps 709 mmHg 69%
    06:00 +22°C° 0 mm 1 mps 709 mmHg 62%
    07:00 +23°C° 0 mm 1 mps 710 mmHg 55%
    08:00 +25°C° 0 mm 2 mps 710 mmHg 47%
    09:00 +26°C° 0 mm 2 mps 710 mmHg 40%
    10:00 +27°C° 0 mm 3 mps 711 mmHg 37%
    11:00 +28°C° 0 mm 4 mps 711 mmHg 34%
    12:00 +29°C° 0 mm 4 mps 711 mmHg 32%
    13:00 +29°C° 0 mm 4 mps 711 mmHg 32%
    14:00 +29°C° 0 mm 5 mps 711 mmHg 33%
    15:00 +29°C° 0 mm 5 mps 710 mmHg 34%
    16:00 +28°C° 0 mm 5 mps 710 mmHg 38%
    17:00 +27°C° 0 mm 4 mps 710 mmHg 42%
    18:00 +26°C° 0 mm 4 mps 710 mmHg 46%
    19:00 +24°C° 0 mm 3 mps 711 mmHg 53%
    20:00 +23°C° 0 mm 2 mps 711 mmHg 60%
    21:00 +21°C° 0 mm 1 mps 711 mmHg 66%
    22:00 +21°C° 0 mm 1 mps 711 mmHg 69%
    23:00 +20°C° 0 mm 1 mps 711 mmHg 71%

    Tomorrow, 26 June, Tuesday

    Time Temperature Precipitation Wind Pressure Humidity
    00:00 +20°C° 0 mm 1 mps 710 mmHg 73%
    01:00 +20°C° 0 mm 1 mps 710 mmHg 73%
    02:00 +17°C° 0 mm 0 mps 710 mmHg 72%
    03:00 +17°C° 0 mm 0 mps 710 mmHg 72%
    04:00 +20°C° 0 mm 1 mps 710 mmHg 67%
    05:00 +20°C° 0 mm 1 mps 710 mmHg 61%
    06:00 +21°C° 0 mm 1 mps 710 mmHg 55%
    07:00 +23°C° 0 mm 2 mps 711 mmHg 48%
    08:00 +24°C° 0 mm 2 mps 711 mmHg 41%
    09:00 +26°C° 0 mm 3 mps 712 mmHg 33%
    10:00 +27°C° 0 mm 3 mps 712 mmHg 32%
    11:00 +28°C° 0 mm 4 mps 712 mmHg 30%
    12:00 +29°C° 0 mm 4 mps 712 mmHg 28%
    13:00 +29°C° 0 mm 4 mps 711 mmHg 29%
    14:00 +29°C° 0 mm 4 mps 711 mmHg 30%
    15:00 +29°C° 0 mm 5 mps 711 mmHg 31%
    16:00 +28°C° 0 mm 4 mps 711 mmHg 35%
    17:00 +26°C° 0 mm 4 mps 711 mmHg 39%
    18:00 +25°C° 0 mm 4 mps 711 mmHg 44%
    19:00 +24°C° 0 mm 3 mps 711 mmHg 50%
    20:00 +21°C° 0 mm 2 mps 711 mmHg 56%
    21:00 +21°C° 0 mm 1 mps 711 mmHg 62%
    22:00 +21°C° 0 mm 1 mps 711 mmHg 64%
    23:00 +20°C° 0 mm 1 mps 711 mmHg 65%

    Day after tomorrow, 27 June, Wednesday

    Time Temperature Precipitation Wind Pressure Humidity
    00:00 +20°C° 0 mm 1 mps 711 mmHg 67%
    01:00 +19°C° 0 mm 1 mps 711 mmHg 67%
    02:00 +19°C° 0 mm 1 mps 710 mmHg 66%
    03:00 +18°C° 0 mm 1 mps 710 mmHg 66%
    04:00 +19°C° 0 mm 1 mps 710 mmHg 60%
    05:00 +20°C° 0 mm 1 mps 710 mmHg 55%
    06:00 +21°C° 0 mm 1 mps 711 mmHg 49%
    07:00 +23°C° 0 mm 1 mps 711 mmHg 41%
    08:00 +25°C° 0 mm 1 mps 711 mmHg 34%
    09:00 +27°C° 0 mm 1 mps 712 mmHg 26%
    10:00 +28°C° 0 mm 1 mps 711 mmHg 24%
    11:00 +29°C° 0 mm 2 mps 711 mmHg 22%
    12:00 +30°C° 0 mm 2 mps 711 mmHg 21%
    13:00 +30°C° 0 mm 3 mps 711 mmHg 21%
    14:00 +31°C° 0 mm 3 mps 711 mmHg 22%
    15:00 +32°C° 0 mm 4 mps 711 mmHg 23%
    16:00 +30°C° 0 mm 3 mps 710 mmHg 28%
    17:00 +29°C° 0 mm 3 mps 710 mmHg 32%
    18:00 +28°C° 0 mm 3 mps 710 mmHg 37%
    19:00 +26°C° 0 mm 2 mps 710 mmHg 42%
    20:00 +25°C° 0 mm 2 mps 710 mmHg 47%
    21:00 +23°C° 0 mm 1 mps 710 mmHg 53%
    22:00 +23°C° 0 mm 1 mps 710 mmHg 53%
    23:00 +23°C° 0 mm 1 mps 710 mmHg 54%

    28 June, Thursday

    Time Temperature Precipitation Wind Pressure Humidity
    00:00 +22°C° 0 mm 1 mps 709 mmHg 54%
    01:00 +22°C° 0 mm 1 mps 709 mmHg 54%
    02:00 +22°C° 0 mm 1 mps 709 mmHg 55%
    03:00 +20°C° 0 mm 0 mps 708 mmHg 55%
    04:00 +21°C° 0 mm 0 mps 708 mmHg 51%
    05:00 +22°C° 0 mm 0 mps 709 mmHg 48%
    06:00 +23°C° 0 mm 0 mps 709 mmHg 44%
    07:00 +26°C° 0 mm 1 mps 709 mmHg 39%
    08:00 +28°C° 0 mm 1 mps 709 mmHg 33%
    09:00 +30°C° 0 mm 2 mps 709 mmHg 28%
    10:00 +31°C° 0 mm 2 mps 709 mmHg 26%
    11:00 +33°C° 0 mm 3 mps 709 mmHg 25%
    12:00 +34°C° 0 mm 3 mps 709 mmHg 23%
    13:00 +34°C° 0 mm 4 mps 709 mmHg 23%
    14:00 +35°C° 0 mm 4 mps 709 mmHg 23%
    15:00 +35°C° 0 mm 4 mps 709 mmHg 23%
    16:00 +34°C° 0 mm 4 mps 708 mmHg 26%
    17:00 +33°C° 0 mm 3 mps 708 mmHg 28%
    18:00 +31°C° 0 mm 3 mps 708 mmHg 31%
    19:00 +29°C° 0 mm 3 mps 708 mmHg 33%
    20:00 +28°C° 0 mm 2 mps 708 mmHg 36%
    21:00 +27°C° 0 mm 2 mps 708 mmHg 38%
    22:00 +26°C° 0 mm 2 mps 708 mmHg 38%
    23:00 +26°C° 0 mm 2 mps 708 mmHg 38%

    29 June, Friday

    Time Temperature Precipitation Wind Pressure Humidity
    00:00 +26°C° 0 mm 2 mps 707 mmHg 38%
    01:00 +25°C° 0 mm 2 mps 707 mmHg 38%
    02:00 +25°C° 0 mm 2 mps 706 mmHg 37%
    03:00 +25°C° 0 mm 1 mps 706 mmHg 37%
    04:00 +26°C° 0 mm 2 mps 706 mmHg 36%
    05:00 +27°C° 0 mm 2 mps 706 mmHg 34%
    06:00 +28°C° 0 mm 2 mps 707 mmHg 33%
    07:00 +31°C° 0 mm 3 mps 707 mmHg 28%
    08:00 +35°C° 0 mm 4 mps 707 mmHg 23%
    09:00 +37°C° 0 mm 5 mps 708 mmHg 18%
    10:00 +40°C° 0 mm 6 mps 708 mmHg 16%
    11:00 +43°C° 0 mm 7 mps 708 mmHg 14%
    12:00 +44°C° 0 mm 9 mps 707 mmHg 12%
    13:00 +44°C° 0 mm 8 mps 707 mmHg 13%
    14:00 +44°C° 0 mm 8 mps 707 mmHg 13%
    15:00 +44°C° 0 mm 7 mps 707 mmHg 14%
    16:00 +42°C° 0 mm 6 mps 707 mmHg 16%
    17:00 +40°C° 0 mm 5 mps 706 mmHg 19%
    18:00 +38°C° 0 mm 4 mps 706 mmHg 21%
    19:00 +36°C° 0 mm 4 mps 706 mmHg 25%
    20:00 +34°C° 0 mm 3 mps 706 mmHg 28%
    21:00 +31°C° 0 mm 3 mps 707 mmHg 32%
    22:00 +31°C° 0 mm 3 mps 706 mmHg 33%
    23:00 +30°C° 0 mm 2 mps 706 mmHg 33%

    30 June, Saturday

    Time Temperature Precipitation Wind Pressure Humidity
    00:00 +29°C° 0 mm 2 mps 706 mmHg 33%
    01:00 +29°C° 0 mm 1 mps 706 mmHg 33%
    02:00 +29°C° 0 mm 1 mps 706 mmHg 32%
    03:00 +28°C° 0 mm 1 mps 706 mmHg 32%
    04:00 +29°C° 0 mm 1 mps 706 mmHg 30%
    05:00 +30°C° 0 mm 1 mps 707 mmHg 28%
    06:00 +31°C° 0 mm 1 mps 707 mmHg 27%
    07:00 +35°C° 0 mm 3 mps 708 mmHg 22%
    08:00 +39°C° 0 mm 5 mps 708 mmHg 18%
    09:00 +42°C° 0 mm 6 mps 709 mmHg 14%
    10:00 +44°C° 0 mm 6 mps 709 mmHg 13%
    11:00 +45°C° 0 mm 6 mps 709 mmHg 13%
    12:00 +45°C° 0 mm 6 mps 709 mmHg 13%
    13:00 +45°C° 0 mm 6 mps 709 mmHg 14%
    14:00 +45°C° 0 mm 5 mps 709 mmHg 15%
    15:00 +45°C° 0 mm 5 mps 708 mmHg 17%
    16:00 +42°C° 0 mm 4 mps 708 mmHg 22%
    17:00 +39°C° 0 mm 3 mps 708 mmHg 26%
    18:00 +38°C° 0 mm 3 mps 708 mmHg 31%
    19:00 +36°C° 0 mm 2 mps 708 mmHg 38%
    20:00 +32°C° 0 mm 2 mps 709 mmHg 45%
    21:00 +30°C° 0 mm 1 mps 709 mmHg 52%
    22:00 +30°C° 0 mm 1 mps 709 mmHg 52%
    23:00 +29°C° 0 mm 1 mps 709 mmHg 53%
    Show more